Location: Middlebury
(44.0153°N, 73.1678°W)
Time: 16:13:01
(UTC-05:00)

ISS - Visible Passes

Search period start: 14 November 2019 00:00
Search period end: 24 November 2019 00:00
Orbit: 412 x 421 km, 51.6° (Epoch: 15 November)

Date Brightness Start Highest point End Pass type
(mag) Time Alt. Az. Time Alt. Az. Time Alt. Az.
20 Nov -1.2 18:40:03 10° SSW 18:40:53 16° SSW 18:40:53 16° SSW visible
21 Nov -2.2 17:52:12 10° S 17:54:47 22° SE 17:54:47 22° SE visible
22 Nov -1.6 17:04:52 10° SSE 17:06:38 14° SE 17:08:25 10° E visible
22 Nov -2.0 18:39:36 10° WSW 18:41:31 32° WSW 18:41:31 32° WSW visible
23 Nov -3.6 17:51:14 10° SW 17:54:32 58° SE 17:55:13 46° E visible
